This demonstration page uses our WeatherBlox Daily Observations layout. Learn more.

Left ArrowRight Arrow

47.50024, -111.30081

Hourly Observations for April 20, 2019

Temp ( °F °C ) Dew Point ( °F °C ) Humidity (%) Winds ( mph kmh ) Pressure ( in mb ) Visibility ( mi km ) Precip ( " mm )
12:53 am 00:53 Mostly Cloudy 56 13.3 43 6.1 62 62 W 10 17 29.70 1006 10 16 0.00 0.00
1:53 am 01:53 Cloudy 54 12.2 44 6.7 69 69 SSW 10 17 29.71 1006 10 16 0.00 0.00
2:53 am 02:53 Cloudy with Light Rain 50 10 46 7.8 86 86 WSW 12 19 29.72 1007 7 11 0.02 0.51
3:53 am 03:53 Cloudy with Light Rain 49 9.4 48 8.9 97 97 S 9 15 29.72 1006 7 11 0.14 3.56
4:38 am 04:38 Cloudy with Light Rain 49 9.4 48 8.9 97 97 WNW 9 15 29.78 1008 10 16 0.00 0.03
4:53 am 04:53 Cloudy with Light Rain 49 9.4 48 8.9 97 97 W 8 13 29.75 1008 9 14 0.01 0.25
5:03 am 05:03 Cloudy with Light Rain 48 8.9 48 8.9 100 100 W 6 9 29.79 1009 8 13 0.01 0.25
5:50 am 05:50 Cloudy with Light Rain 46 8 45 7 93 93 NW 5 7 29.80 1009 10 16 0.03 0.76
5:53 am 05:53 Cloudy with Light Rain 46 7.8 45 7.2 96 96 NW 5 7 29.76 1008 10 16 0.03 0.76
6:53 am 06:53 Cloudy with Light Rain 44 6.7 43 6.1 96 96 N 8 13 29.78 1009 10 16 0.01 0.25
7:53 am 07:53 Cloudy 44 6.7 43 6.1 96 96 N 8 13 29.82 1010 10 16 0.00 0.03
8:35 am 08:35 Cloudy with Light Rain 43 6.1 41 5 93 93 N 10 17 29.86 1011 10 16 0.00 0.03
8:53 am 08:53 Cloudy 43 6.1 41 5 93 93 N 10 17 29.83 1010 10 16 0.00 0.03
9:53 am 09:53 Cloudy 44 6.7 42 5.6 93 93 N 7 11 29.85 1011 10 16 0.00 0.00
10:48 am 10:48 Cloudy 45 7 43 6 93 93 NNE 8 13 29.85 1011 10 16 0.00 0.00
10:53 am 10:53 Cloudy 45 7.2 43 6.1 93 93 NNE 7 11 29.85 1011 10 16 0.00 0.00
11:53 am 11:53 Cloudy 44 6.7 42 5.6 93 93 N 9 15 29.86 1011 10 16 0.00 0.00
12:13 pm 12:13 Cloudy 45 7.2 43 6.1 93 93 NNE 9 15 29.85 1011 9 14 0.00 0.00
12:41 pm 12:41 Cloudy with Mist and Fog 44 6.7 43 6.1 96 96 NNE 8 13 29.85 1011 4 6 0.00 0.00
12:53 pm 12:53 Cloudy with Light Rain 44 6.7 43 6.1 96 96 N 12 19 29.84 1011 3 5 0.00 0.03
1:00 pm 13:00 Cloudy with Light Rain 44 6.7 43 6.1 96 96 NNE 9 15 29.85 1011 3 4 0.00 0.03
1:46 pm 13:46 Cloudy with Light Rain 44 6.7 43 6.1 96 96 N 10 17 29.84 1011 3 5 0.02 0.51
1:53 pm 13:53 Cloudy with Light Rain 44 6.7 44 6.7 100 100 N 10 17 29.85 1011 4 6 0.02 0.51
2:02 pm 14:02 Cloudy with Light Rain 44 6.7 43 6.1 96 96 NNE 10 17 29.84 1011 4 6 0.01 0.25
2:09 pm 14:09 Cloudy with Light Rain 44 6.7 43 6.1 96 96 NNE 10 17 29.84 1011 5 8 0.01 0.25
2:36 pm 14:36 Cloudy with Rain 44 6.7 43 6.1 96 96 N 12 19 29.85 1011 5 8 0.04 1.02
2:53 pm 14:53 Cloudy with Light Rain 44 6.7 44 6.7 100 100 N 12 19 29.86 1011 5 8 0.07 1.78
3:05 pm 15:05 Cloudy with Light Rain 44 6.7 43 6.1 96 96 N 9 15 29.85 1011 6 10 0.02 0.51
3:21 pm 15:21 Cloudy with Light Rain 44 6.7 44 6.7 100 100 N 12 19 29.85 1011 8 13 0.05 1.27
3:53 pm 15:53 Cloudy with Light Rain 44 6.7 43 6.1 96 96 N 13 20 29.87 1012 8 13 0.06 1.52
4:44 pm 16:44 Cloudy with Light Rain 43 6.1 42 5.6 97 97 N 13 20 29.87 1012 6 10 0.05 1.27
4:53 pm 16:53 Cloudy with Light Rain 43 6.1 42 5.6 97 97 N 15 24 29.89 1012 8 13 0.05 1.27
5:07 pm 17:07 Cloudy with Light Rain 43 6.1 42 5.6 97 97 N 15 24 29.88 1012 7 11 0.01 0.25
5:53 pm 17:53 Cloudy with Light Rain 43 6.1 41 5 93 93 N 14 22 29.91 1013 10 16 0.03 0.76
6:53 pm 18:53 Cloudy with Light Rain 42 5.6 41 5 96 96 N 8 13 29.95 1014 10 16 0.01 0.25
7:53 pm 19:53 Cloudy with Light Rain 42 5.6 42 5.6 100 100 N 6 9 29.97 1015 7 11 0.01 0.25
8:14 pm 20:14 Cloudy with Light Rain 42 5.6 42 5.6 100 100 N 7 11 29.95 1014 10 16 0.00 0.03
8:28 pm 20:28 Cloudy with Light Rain 42 5.6 42 5.6 100 100 N 9 15 29.95 1014 10 16 0.00 0.03
8:41 pm 20:41 Cloudy with Light Rain 42 5.6 41 5 96 96 NNE 9 15 29.96 1015 9 14 0.00 0.03
8:53 pm 20:53 Cloudy with Light Rain 41 5 41 5 100 100 N 8 13 29.99 1016 10 16 0.00 0.03
9:53 pm 21:53 Cloudy with Light Rain 41 5 41 5 100 100 NNE 7 11 30.01 1016 10 16 0.00 0.03
10:50 pm 22:50 Cloudy with Light Rain 41 5 41 5 100 100 N 8 13 30.01 1016 9 14 0.02 0.51
10:53 pm 22:53 Cloudy with Light Rain 41 5 41 5 100 100 N 9 15 30.02 1017 9 14 0.02 0.51
11:41 pm 23:41 Cloudy with Light Rain 41 5 41 5 100 100 N 10 17 30.01 1016 10 16 0.02 0.51
11:53 pm 23:53 Cloudy with Light Rain 41 5 41 5 100 100 N 12 19 30.03 1017 9 14 0.03 0.76

Powered by AerisWeather